Regional Weather Roundup
Issued by NWS

Home | Current Version | Previous Version | Graphics & Text | Print | Product List | Glossary On
Versions: 1 2 3 4 5 6 7 8 9 10 11 12 13 14 15 16 17 18 19 20 21 22 23 24 25 26 27 28 29 30 31 32 33 34 35 36 37 38 39 40 41 42 43 44 45 46 47 48 49 50
575
ASUS43 KFSD 292002
RWRSD

WEATHER ROUNDUP FOR SOUTH DAKOTA
NATIONAL WEATHER SERVICE SIOUX FALLS SD
300 PM CDT WED MAR 29 2017

NOTE: "FAIR" INDICATES FEW OR NO CLOUDS BELOW 12,000 FEET WITH NO
SIGNIFICANT WEATHER AND/OR OBSTRUCTIONS TO VISIBILITY.


SDZ001>005-009-010-012>017-292100-
NORTHWEST AND NORTH CENTRAL SOUTH DAKOTA

CITY           SKY/WX    TMP DP  RH WIND       PRES   REMARKS
BUFFALO          N/A     61  33  35 W8        29.93F
FAITH            N/A     52  42  69 MISG      30.04F
MOBRIDGE       SUNNY     63  29  27 S8        30.01F
$$

SDZ012>016-024>037-041>051-057-063-072>074-292100-
SOUTHWEST AND SOUTH CENTRAL SOUTH DAKOTA

CITY           SKY/WX    TMP DP  RH WIND       PRES   REMARKS
RAPID CTY ARPT SUNNY     55  40  56 VRB3      30.02F
PIERRE         CLOUDY    61  35  37 SE16G23   30.01F
CUSTER         LGT RAIN  43  36  76 SE6       30.02F
ELLSWORTH AFB  MOSUNNY   53  41  63 N5        30.01F
PHILIP         CLOUDY    54  39  57 VRB3      30.03F
PINE RIDGE     CLOUDY    52  41  66 VRB5      30.02F
SPEARFISH      FAIR      54  36  50 E9        30.02F
WINNER         MOCLDY    54  41  61 E15       30.03F
$$

SDZ004>011-016>023-039-040-292100-
NORTHEAST SOUTH DAKOTA

CITY           SKY/WX    TMP DP  RH WIND       PRES   REMARKS
ABERDEEN       CLOUDY    61  31  32 S13G18    30.07F
WATERTOWN      CLOUDY    55  30  38 SE14G23   30.09F
BROOKINGS      CLOUDY    51  36  56 SE20      30.08F
SISSETON         N/A     59  35  40 S15       30.09F
$$

SDZ017-020-022-023-036>040-048>070-292100-
SOUTHEAST SOUTH DAKOTA

CITY           SKY/WX    TMP DP  RH WIND       PRES   REMARKS
SIOUX FALLS    CLOUDY    50  36  58 E22G36    30.06F
HURON          CLOUDY    56  36  47 SE10G17   30.06F
CHAMBERLAIN    PTSUNNY   55  38  52 E14G22    30.06F
MITCHELL       CLOUDY    52  36  54 E17       30.08F
YANKTON        CLOUDY    45  39  81 E25       30.03F
$$

ABBREVIATIONS USED IN REMARKS
   TC - TEMPERATURE IN CELSIUS
  WCI - WIND CHILL INDEX
   HX - HEAT INDEX
  VSB - VISIBILITY





USA.gov is the U.S. government's official web portal to all federal, state and local government web resources and services.